Location: Unspecified
(48.8656°N, 0.0000°E)
Time: 06:27:52
(UTC+00:00)

Transit 2A Rocket - Pass Details

Date: 18 June 2019
Orbit: 588 x 915 km, 66.7° (Epoch: 17 July)

Event Time Altitude Azimuth Distance (km) Brightness Sun altitude
Rises 09:54:40 0° 170° (S) 3,531 8.8 54.4°
Reaches altitude 10° 09:57:42 10° 156° (SSE) 2,600 8.4 54.8°
Maximum altitude 10:02:16 23° 108° (ESE) 1,852 8.0 55.4°
Drops below altitude 10° 10:06:47 10° 59° (ENE) 2,564 8.0 56.0°
Sets 10:09:44 0° 45° (NE) 3,471 8.4 56.4°
